TimeCDT,TemperatureF,Dew PointF,Humidity,Sea Level PressureIn,VisibilityMPH,Wind Direction,Wind SpeedMPH,Gust SpeedMPH,PrecipitationIn,Events,Conditions,WindDirDegrees,DateUTC
12:53 AM,66.0,64.9,96,29.99,4.0,Calm,Calm,-,N/A,,Clear,0,2012-09-22 05:53:00
1:53 AM,66.0,64.0,93,30.00,4.0,Calm,Calm,-,N/A,,Clear,0,2012-09-22 06:53:00
2:53 AM,64.0,63.0,96,30.01,3.0,Calm,Calm,-,N/A,,Clear,0,2012-09-22 07:53:00
3:00 AM,64.4,62.6,94,30.01,2.5,Calm,Calm,-,N/A,,Clear,0,2012-09-22 08:00:00
3:10 AM,64.4,62.6,94,30.01,3.0,Calm,Calm,-,N/A,,Clear,0,2012-09-22 08:10:00
3:46 AM,64.4,62.6,94,30.01,2.0,Calm,Calm,-,N/A,,Clear,0,2012-09-22 08:46:00
3:53 AM,64.0,63.0,96,30.01,4.0,Calm,Calm,-,N/A,,Clear,0,2012-09-22 08:53:00
4:00 AM,64.4,62.6,94,30.00,2.5,Calm,Calm,-,N/A,,Clear,0,2012-09-22 09:00:00
4:07 AM,62.6,62.6,100,30.01,3.0,Calm,Calm,-,N/A,,Clear,0,2012-09-22 09:07:00
4:53 AM,64.0,62.1,93,30.02,3.0,Calm,Calm,-,N/A,,Clear,0,2012-09-22 09:53:00
5:04 AM,62.6,62.6,100,30.01,1.5,Calm,Calm,-,N/A,,Clear,0,2012-09-22 10:04:00
5:16 AM,62.6,60.8,94,30.02,3.0,Calm,Calm,-,0.01,,Clear,0,2012-09-22 10:16:00
5:30 AM,62.6,60.8,94,30.02,2.5,SSE,4.6,-,0.01,,Clear,150,2012-09-22 10:30:00
5:50 AM,62.6,60.8,94,30.02,4.0,Calm,Calm,-,0.01,,Clear,0,2012-09-22 10:50:00
5:53 AM,63.0,61.0,93,30.04,4.0,Calm,Calm,-,0.01,,Clear,0,2012-09-22 10:53:00
6:53 AM,62.1,60.1,93,30.05,3.0,Calm,Calm,-,N/A,,Clear,0,2012-09-22 11:53:00
7:53 AM,64.9,63.0,93,30.07,3.0,Calm,Calm,-,N/A,,Clear,0,2012-09-22 12:53:00
8:53 AM,72.0,66.9,84,30.08,4.0,Calm,Calm,-,N/A,,Haze,0,2012-09-22 13:53:00
9:53 AM,77.0,69.1,76,30.09,7.0,Calm,Calm,-,N/A,,Clear,0,2012-09-22 14:53:00
10:53 AM,81.0,68.0,65,30.10,10.0,Calm,Calm,-,N/A,,Clear,0,2012-09-22 15:53:00
11:53 AM,84.9,66.0,53,30.10,10.0,NW,6.9,-,N/A,,Clear,320,2012-09-22 16:53:00
12:53 PM,88.0,66.9,49,30.09,10.0,NE,5.8,-,N/A,,Clear,50,2012-09-22 17:53:00
1:53 PM,89.1,64.0,43,30.06,10.0,North,5.8,-,N/A,,Clear,10,2012-09-22 18:53:00
2:53 PM,89.1,64.0,43,30.04,10.0,Variable,3.5,-,N/A,,Clear,0,2012-09-22 19:53:00
3:53 PM,89.1,63.0,42,30.04,10.0,Calm,Calm,-,N/A,,Clear,0,2012-09-22 20:53:00
4:53 PM,89.1,62.1,40,30.04,10.0,East,3.5,-,N/A,,Clear,90,2012-09-22 21:53:00
5:53 PM,89.1,64.0,43,30.03,10.0,Calm,Calm,-,N/A,,Clear,0,2012-09-22 22:53:00
6:53 PM,82.0,70.0,67,30.04,10.0,Calm,Calm,-,N/A,,Clear,0,2012-09-22 23:53:00
7:53 PM,75.9,66.9,74,30.05,10.0,Calm,Calm,-,N/A,,Clear,0,2012-09-23 00:53:00
8:53 PM,73.0,66.9,81,30.06,10.0,Calm,Calm,-,N/A,,Clear,0,2012-09-23 01:53:00
9:53 PM,71.1,66.9,87,30.08,9.0,Calm,Calm,-,N/A,,Clear,0,2012-09-23 02:53:00
10:53 PM,70.0,66.9,90,30.10,8.0,Calm,Calm,-,N/A,,Clear,0,2012-09-23 03:53:00
11:53 PM,69.1,66.9,93,30.10,7.0,Calm,Calm,-,N/A,,Clear,0,2012-09-23 04:53:00